Location: Gradaro
(45.0833°N, 10.8833°E)
Time: 21:11:46
(UTC+00:00)

SJ 16-02 - Pass Details

Date: 29 November 2020
Orbit: 606 x 616 km, 75.0° (Epoch: 21 January)

Event Time Altitude Azimuth Distance (km) Brightness Sun altitude
Exits shadow 04:46:11 32° 319° (NW) 1,058 2.1 -18.3°
Drops below altitude 10° 04:49:31 10° 3° (N) 1,987 3.9 -17.7°
Sets 04:51:56 0° 13° (NNE) 2,898 4.8 -17.3°
